Weather History for Montgomery, NY

Change the Weather History Date:

Tuesday, January 14, 2014

  Actual Average (KPOU) Record (KPOU)
Temperature  
Mean Temperature 36 °F 25 °F  
Max Temperature 43 °F 35 °F 64 °F (2005)
Min Temperature 30 °F 15 °F -14 °F (1954)
Degree Days  
Heating Degree Days 28 40  
Month to date heating degree days 552  
Since 1 July heating degree days 2881  
Cooling Degree Days 0 0  
Month to date cooling degree days 0  
Year to date cooling degree days 0  
Moisture  
Dew Point 38 °F    
Average Humidity 93    
Maximum Humidity 100    
Minimum Humidity 82    
Precipitation  
Precipitation 0.43 in 0.10 in 1.51 in (2005)
Month to date precipitation 1.43  
Year to date precipitation 1.43  
Sea Level Pressure  
Sea Level Pressure 29.73 in    
Wind  
Wind Speed 1 mph (West)    
Max Wind Speed 7 mph    
Max Gust Speed -    
Visibility 4 miles    
Events Fog , Rain    
T = Trace of Precipitation, MM = Missing Value Source: NWS Daily Summary

Daily Weather History Graph

Daily Weather History Graph

Search for Another Location

Airport:

Trip Planner

Search our weather history database for the weather conditions in past years. The results will help you decide how hot, cold, wet, or windy it might be!

Date:

Astronomy

Jan. 14, 2014 Rise Set
Actual Time 7:21 AM EST 4:51 PM EST
Civil Twilight 6:50 AM EST 5:21 PM EST
Nautical Twilight 6:16 AM EST 5:55 PM EST
Astronomical Twilight 5:43 AM EST 6:29 PM EST
Moon 3:54 PM EST (1/14) 5:54 AM EST (1/14)
Length of Visible Light 10h 30m
Length of Day
9h 29m
Waxing Gibbous, 98% of the Moon is Illuminated
Jan 14
Waxing Gibbous
Jan 15
Full
Jan 24
Last Quarter
Jan 30
New
Feb 6
First Quarter

Hourly Weather History & Observations

Time (EST) Temp. Windchill Dew Point Humidity Pressure Visibility Wind Dir Wind Speed Gust Speed Precip Events Conditions
12:54 AM 35.1 °F - 32.0 °F 89% 29.83 in 10.0 mi Calm Calm - N/A   Clear
1:54 AM 35.1 °F - 32.0 °F 89% 29.82 in 10.0 mi Calm Calm - N/A   Partly Cloudy
2:54 AM 35.1 °F - 32.0 °F 89% 29.80 in 10.0 mi Calm Calm - N/A   Mostly Cloudy
3:54 AM 36.0 °F - 33.1 °F 89% 29.79 in 10.0 mi Calm Calm - N/A   Overcast
4:54 AM 36.0 °F - 32.0 °F 86% 29.78 in 10.0 mi Calm Calm - N/A   Overcast
5:54 AM 37.0 °F - 34.0 °F 89% 29.78 in 10.0 mi Calm Calm - N/A   Overcast
6:54 AM 37.9 °F - 35.1 °F 89% 29.77 in 10.0 mi Calm Calm - 0.00 in Rain Light Rain
7:54 AM 37.9 °F - 36.0 °F 93% 29.78 in 9.0 mi Calm Calm - 0.01 in Rain Light Rain
8:54 AM 39.0 °F - 37.0 °F 93% 29.78 in 7.0 mi Calm Calm - 0.00 in   Overcast
9:05 AM 39.0 °F - 37.0 °F 93% 29.78 in 8.0 mi Calm Calm - 0.00 in Rain Light Rain
9:54 AM 41.0 °F - 39.0 °F 93% 29.77 in 3.0 mi Calm Calm - 0.03 in Rain Light Rain
10:06 AM 39.9 °F - 37.9 °F 93% 29.76 in 2.0 mi Calm Calm - 0.00 in   Overcast
10:31 AM 41.0 °F - 39.0 °F 93% 29.76 in 1.5 mi Calm Calm - 0.02 in Rain Light Rain
10:54 AM 41.0 °F - 39.9 °F 96% 29.75 in 1.5 mi Calm Calm - 0.05 in Rain Light Rain
11:43 AM 42.1 °F 40.2 °F 39.9 °F 92% 29.73 in 1.0 mi NNW 3.5 mph - 0.06 in Rain Rain
11:54 AM 42.1 °F - 41.0 °F 96% 29.74 in 1.2 mi Calm Calm - 0.07 in Rain Rain
12:54 PM 43.0 °F - 41.0 °F 93% 29.70 in 1.0 mi Calm Calm - 0.05 in Rain Light Rain
1:03 PM 43.0 °F - 42.1 °F 97% 29.69 in 1.8 mi Calm Calm - 0.00 in Rain Light Rain
1:10 PM 43.0 °F - 42.1 °F 97% 29.69 in 2.0 mi Calm Calm - 0.01 in Rain Light Rain
1:14 PM 43.0 °F - 41.0 °F 93% 29.69 in 1.5 mi Calm Calm - 0.01 in Rain Light Rain
1:29 PM 43.0 °F 41.3 °F 41.0 °F 93% 29.66 in 2.0 mi North 3.5 mph - 0.01 in Rain Light Rain
1:38 PM 43.0 °F - 41.0 °F 93% 29.67 in 1.5 mi Calm Calm - 0.01 in Rain Light Rain
1:47 PM 43.0 °F - 41.0 °F 93% 29.68 in 0.8 mi Calm Calm - 0.03 in Rain Rain
1:54 PM 42.1 °F 40.2 °F 41.0 °F 96% 29.69 in 0.5 mi WNW 3.5 mph - 0.04 in Fog , Rain Rain
2:05 PM 42.1 °F - 39.9 °F 92% 29.68 in 0.5 mi Calm Calm - 0.02 in Fog , Rain Rain
2:54 PM 43.0 °F - 41.0 °F 93% 29.69 in 0.5 mi Calm Calm - 0.09 in Fog , Rain Light Rain
3:44 PM 42.1 °F 40.2 °F 41.0 °F 96% 29.69 in 1.0 mi SW 3.5 mph - 0.03 in Rain Light Rain
3:52 PM 42.8 °F - 39.2 °F 87% 29.69 in 0.5 mi Calm Calm - 0.03 in Fog , Rain Light Rain
3:54 PM 42.1 °F - 39.9 °F 92% 29.69 in 0.2 mi Calm Calm - 0.03 in Fog , Rain Light Rain
4:35 PM 41.0 °F - 39.9 °F 96% 29.67 in 0.2 mi Calm Calm - 0.03 in Fog , Rain Light Rain
4:50 PM 39.2 °F - 39.2 °F 100% 29.67 in 0.2 mi Calm Calm - 0.03 in Fog , Rain Light Rain
4:54 PM 39.9 °F - 39.0 °F 97% 29.68 in 0.2 mi Calm Calm - 0.03 in Fog , Rain Light Rain
5:25 PM 39.0 °F 35.7 °F 37.9 °F 96% 29.69 in 1.2 mi SW 4.6 mph - 0.01 in Rain Light Rain
5:35 PM 39.9 °F 37.8 °F 39.0 °F 97% 29.69 in 1.0 mi South 3.5 mph - 0.01 in Rain Light Rain
5:43 PM 39.9 °F - 39.0 °F 97% 29.69 in 1.8 mi Calm Calm - 0.02 in Rain Light Rain
5:50 PM 41.0 °F - 39.2 °F 93% 29.69 in 3.0 mi Calm Calm - 0.02 in Rain Light Rain
5:51 PM 41.0 °F - 39.0 °F 93% 29.70 in 3.0 mi Calm Calm - 0.02 in Rain Light Rain
6:04 PM 39.9 °F - 39.0 °F 97% 29.70 in 1.8 mi Calm Calm - 0.00 in Rain Light Rain
6:10 PM 39.9 °F - 39.0 °F 97% 29.70 in 0.8 mi Calm Calm - 0.00 in Rain Light Rain
6:24 PM 39.9 °F 37.8 °F 39.0 °F 97% 29.69 in 1.2 mi SSE 3.5 mph - 0.00 in Rain Light Rain
6:28 PM 41.0 °F - 39.0 °F 93% 29.69 in 3.0 mi Calm Calm - 0.00 in Rain Light Rain
6:35 PM 39.9 °F - 39.0 °F 97% 29.69 in 1.8 mi Calm Calm - 0.00 in Rain Light Rain
6:39 PM 39.0 °F - 39.0 °F 100% 29.69 in 0.8 mi Calm Calm - 0.00 in   Overcast
6:54 PM 39.0 °F - 37.0 °F 93% 29.70 in 0.5 mi Calm Calm - 0.00 in Fog , Rain Light Rain
7:14 PM 39.0 °F 35.7 °F 37.0 °F 93% 29.71 in 1.2 mi West 4.6 mph - 0.00 in Rain Light Rain
7:17 PM 39.0 °F 34.8 °F 37.9 °F 96% 29.72 in 3.0 mi West 5.8 mph - 0.00 in Rain Light Rain
7:54 PM 43.0 °F 38.8 °F 39.9 °F 89% 29.75 in 10.0 mi West 6.9 mph - 0.00 in Rain Light Rain
8:54 PM 41.0 °F 37.1 °F 39.0 °F 93% 29.79 in 10.0 mi West 5.8 mph - 0.00 in   Scattered Clouds
9:54 PM 41.0 °F 38.0 °F 36.0 °F 82% 29.81 in 10.0 mi West 4.6 mph - 0.01 in   Clear
10:54 PM 36.0 °F 33.3 °F 33.1 °F 89% 29.82 in 8.0 mi West 3.5 mph - N/A   Clear
11:08 PM 32.0 °F 28.7 °F 30.9 °F 96% 29.81 in 2.5 mi West 3.5 mph - N/A   Clear
11:22 PM 30.9 °F 27.5 °F 30.0 °F 96% 29.80 in 3.0 mi Variable 3.5 mph - N/A   Partly Cloudy
11:54 PM 32.0 °F 25.6 °F 30.9 °F 96% 29.83 in 9.0 mi SW 6.9 mph - N/A   Clear